Home > Weather > Heinsberg > Past weeks

Flag for Germany Past Weather in Heinsberg, North Rhine-Westphalia, Germany — Yesterday and Last 2 Weeks

Now
62 °F

Overcast.


Feels Like: 62 °F
Forecast: 54 / 66 °F
Wind: 2 mph from West

Location: Maastricht Airport Zuid Limburg

Current Time: Jun 25, 2016 at 2:19:15 PM

Latest Report: Jun 25, 2016 at 1:00 PM


Visibility: 12 mi

Pressure: 30.00 "Hg

Humidity: 78%

Dew Point: 55 °F

Location of HeinsbergLocation

Past Weather in Heinsberg — Graph

°F

Heinsberg Temperature Yesterday

Maximum temperature yesterday: 74 °F (at 3:00 PM)
Minimum temperature yesterday: 66 °F (at 7:00 AM)
Average temperature yesterday: 69 °F

High & Low Weather Summary for the Past Weeks

 TemperatureHumidityPressure
High90 °F (Jun 23, 5:00 PM)100% (Jun 17, 1:00 AM)30.28 "Hg (Jun 17, 1:00 AM)
Low49 °F (Jun 16, 5:00 AM)41% (Jun 10, 1:00 PM)29.47 "Hg (Jun 14, 3:00 PM)
Average62 °F84%29.88 "Hg
* Reported Jun 10 1:00 PM — Jun 25 1:00 PM, Heinsberg, Weather by CustomWeather, © 2016

Note: Actual official high and low records may vary slightly from our data, if they occured in-between our weather recording intervals... More about our weather records

Advertising

Heinsberg Weather History for the Previous 24 Hours

Scroll right to see more
 ConditionsComfort  
Time TempWeatherWind HumidityBarometerVisibility
1:00 PM
Sat, Jun 25
62 °FOvercast.2 mph78%30.00 "Hg12 mi
12:00 PM63 °FOvercast.3 mph79%29.99 "Hg13 mi
11:00 AM62 °FOvercast.2 mph82%29.98 "Hg13 mi
10:00 AM60 °FOvercast.2 mph84%29.98 "Hg11 mi
9:00 AM60 °FOvercast.2 mph86%29.99 "Hg12 mi
8:00 AM59 °FOvercast.3 mph84%30.01 "Hg16 mi
7:00 AM60 °FOvercast.2 mph80%30.01 "Hg25 mi
6:00 AM60 °FOvercast.3 mph82%30.01 "Hg13 mi
5:00 AM61 °FOvercast.2 mph91%30.02 "Hg7 mi
4:00 AM62 °FOvercast.3 mph88%30.02 "Hg7 mi
3:00 AM62 °FOvercast.2 mph89%30.03 "Hg7 mi
2:00 AM63 °FOvercast.3 mph86%30.04 "Hg9 mi
1:00 AM64 °FOvercast.5 mph82%30.06 "Hg11 mi
12:00 AM64 °FPassing clouds.2 mph89%30.06 "Hg9 mi
11:00 PM
Fri, Jun 24
66 °FClear.1 mph83%30.06 "Hg17 mi
10:00 PM67 °FPassing clouds.1 mph80%30.06 "Hg17 mi
9:00 PM71 °FOvercast.1 mph72%30.06 "Hg19 mi
8:00 PM72 °FScattered clouds.2 mph69%30.05 "Hg19 mi
7:00 PM73 °FOvercast.2 mph70%30.06 "Hg16 mi
6:00 PM71 °FOvercast.2 mph78%30.06 "Hg16 mi
5:00 PM72 °FOvercast.2 mph73%30.06 "Hg17 mi
4:00 PM73 °FOvercast.3 mph74%30.07 "Hg19 mi
3:00 PM74 °FOvercast.3 mph75%30.07 "Hg17 mi
2:00 PM70 °FOvercast.3 mph85%30.08 "Hg9 mi
Weather by CustomWeather, © 2016

See weather overviewHow to use our weather pages